Weather History for KDIJ - March, 2012

Change the Weather History Date:

Friday, March 23, 2012

  Actual Average (KRXE) Record (KRXE)
Temperature  
Mean Temperature 46 °F 37 °F  
Max Temperature 55 °F 48 °F 69 °F (2004)
Min Temperature 36 °F 27 °F 8 °F (2008)
Degree Days  
Heating Degree Days 20 28  
Month to date heating degree days 747  
Since 1 July heating degree days 6720  
Cooling Degree Days 0 0  
Month to date cooling degree days 0  
Year to date cooling degree days 0  
Moisture  
Dew Point 27 °F    
Average Humidity 48    
Maximum Humidity 73    
Minimum Humidity 32    
Precipitation  
Precipitation 0.00 in 0.04 in 0.61 in (2005)
Month to date precipitation 0.70  
Year to date precipitation 2.27  
Sea Level Pressure  
Sea Level Pressure 29.80 in    
Wind  
Wind Speed 11 mph (South)    
Max Wind Speed 29 mph    
Max Gust Speed 36 mph    
Visibility 10 miles    
Events      
T = Trace of Precipitation, MM = Missing Value Source: NWS Daily Summary

Daily Weather History Graph

Daily Weather History Graph

Search for Another Location

Airport or City:

Trip Planner

Search our weather history database for the weather conditions in past years. The results will help you decide how hot, cold, wet, or windy it might be!

Date:

Astronomy

Mar. 23, 2012 Rise Set
Actual Time 7:21 AM MDT 7:41 PM MDT
Civil Twilight 6:52 AM MDT 8:09 PM MDT
Nautical Twilight 6:18 AM MDT 8:43 PM MDT
Astronomical Twilight 5:43 AM MDT 9:18 PM MDT
Moon 7:27 AM MDT (3/23) 9:11 PM MDT (3/23)
Length of Visible Light 13h 17m
Length of Day
12h 19m
New Moon, 1% of the Moon is Illuminated
Mar 23
New Moon
Mar 30
First Quarter
Apr 6
Full
Apr 13
Last Quarter
Apr 21
New

Hourly Weather History & Observations

Time (MDT) Temp. Windchill Dew Point Humidity Pressure Visibility Wind Dir Wind Speed Gust Speed Precip Events Conditions
12:56 AM 36.9 °F 34.3 °F 21.0 °F 53% 29.78 in 10.0 mi North 3.5 mph - N/A   Clear
1:56 AM 37.9 °F 34.4 °F 23.0 °F 55% 29.77 in 10.0 mi NE 4.6 mph - N/A   Clear
2:56 AM 48.9 °F - 25.2 °F 40% 29.71 in 10.0 mi SSE 17.3 mph - N/A   Clear
3:56 AM 46.9 °F - 26.1 °F 44% 29.71 in 10.0 mi South 11.5 mph - N/A   Clear
4:56 AM 45.9 °F 41.2 °F 27.1 °F 48% 29.70 in 10.0 mi SSE 9.2 mph - N/A   Clear
5:56 AM 47.8 °F - 26.1 °F 43% 29.71 in 10.0 mi South 11.5 mph - N/A   Mostly Cloudy
6:56 AM 46.9 °F - 26.1 °F 44% 29.75 in 10.0 mi South 12.7 mph - N/A   Partly Cloudy
7:56 AM 45.9 °F 42.3 °F 27.1 °F 48% 29.79 in 10.0 mi South 6.9 mph - N/A   Overcast
8:56 AM 46.9 °F - 27.1 °F 46% 29.79 in 10.0 mi South 10.4 mph - N/A   Overcast
9:56 AM 47.8 °F - 26.1 °F 43% 29.78 in 10.0 mi South 11.5 mph - N/A   Scattered Clouds
10:56 AM 50.9 °F - 26.1 °F 38% 29.78 in 10.0 mi South 15.0 mph - N/A   Mostly Cloudy
11:56 AM 54.0 °F - 25.2 °F 33% 29.77 in 10.0 mi South 12.7 mph - N/A   Scattered Clouds
12:56 PM 54.9 °F - 27.1 °F 34% 29.76 in 10.0 mi SSW 24.2 mph - N/A   Partly Cloudy
1:56 PM 55.9 °F - 26.1 °F 32% 29.76 in 10.0 mi SSW 28.8 mph 35.7 mph N/A   Clear
2:56 PM 55.9 °F - 26.1 °F 32% 29.74 in 10.0 mi SSW 24.2 mph - N/A   Partly Cloudy
3:56 PM 54.9 °F - 27.1 °F 34% 29.77 in 10.0 mi SW 19.6 mph - N/A   Clear
4:56 PM 54.0 °F - 27.1 °F 36% 29.79 in 10.0 mi SW 18.4 mph - N/A   Clear
5:56 PM 52.0 °F - 28.0 °F 40% 29.81 in 10.0 mi SW 11.5 mph - N/A   Clear
6:56 PM 45.9 °F 42.9 °F 32.9 °F 61% 29.87 in 10.0 mi Variable 5.8 mph - N/A   Mostly Cloudy
7:56 PM 43.9 °F 39.9 °F 32.9 °F 65% 29.91 in 10.0 mi NE 6.9 mph - N/A   Overcast
8:56 PM 41.9 °F 40.0 °F 32.0 °F 68% 29.94 in 10.0 mi NNE 3.5 mph - N/A   Mostly Cloudy
9:56 PM 39.9 °F 34.5 °F 31.1 °F 71% 29.98 in 10.0 mi ENE 8.1 mph - N/A   Partly Cloudy
10:56 PM 37.9 °F 32.1 °F 30.0 °F 73% 29.97 in 10.0 mi East 8.1 mph - N/A   Mostly Cloudy
11:56 PM 36.0 °F 31.1 °F 28.0 °F 73% 29.96 in 10.0 mi SE 5.8 mph - N/A   Clear